[[{"header":{"parameterUnit":"m.s-1","parameterCategory":1,"la1":30.2991,"la2":30.254,"lo1":-89.0895,"lo2":-89.0444,"dy":0.0017,"dx":0.0017,"nx":28,"ny":28,"refTime":"2023-10-16T09:00:00:Z","depth":0,"parameterNumber":2,"parameterNumberName":"U-component_of_WINDS"},"data":[0,0,0,0,0,0,0,0,0,0,0,0,0,0,0,0,0,0,0,0,0,0,0,0,0,0,0,0,0,0,0,0,0,0,0,0,0,0,0,0,0,0,0,0,0,0,0,0,0,0,0,0,0,0,0,0,0,0,1.944,1.944,0,1.9402,1.9401,1.9401,1.9341,1.934,1.9339,1.9338,1.9298,1.9298,1.9298,0,0,0,0,0,0,0,0,0,0,0,0,0,1.9464,1.9463,1.944,1.944,1.944,1.9402,1.9401,1.9401,1.9341,1.934,1.9339,1.9338,1.9298,1.9298,1.9298,0,0,0,0,0,0,0,0,0,0,0,0,0,1.9442,1.9463,1.9441,1.9405,1.9402,1.9402,1.9401,1.9401,1.9342,1.934,1.9339,1.9337,1.9298,1.9298,1.9298,1.9329,0,0,1.9298,1.9297,0,0,0,0,0,0,0,0,1.9443,1.9441,1.9411,1.9408,1.9404,1.9375,1.9395,1.9377,1.9342,1.9365,1.9338,1.9336,1.9325,1.9322,1.9319,1.9327,1.9325,1.9297,1.9297,1.9297,1.9297,0,0,0,0,0,0,0,1.9445,1.9443,1.9425,1.9411,1.9406,1.9392,1.9387,1.9391,1.9354,1.9362,1.9358,1.9354,1.9323,1.9319,1.9317,1.9325,1.9297,1.9297,1.9297,1.9297,1.9358,1.936,0,0,0,0,0,0,1.9452,1.9444,1.9426,1.9424,1.942,1.9393,1.9387,1.9386,1.9354,1.9348,1.9356,1.9352,1.932,1.9317,1.9316,1.935,1.9297,1.9297,1.9297,1.9357,1.9359,1.9361,0,0,0,0,0,0,1.9452,1.9451,1.9428,1.9433,1.9429,1.9394,1.9393,1.9386,1.9382,1.9349,1.9342,1.9359,1.9319,1.9316,1.9326,1.9348,1.9297,1.9297,1.9355,1.9357,1.936,1.942,0,0,0,0,0,0,1.9453,1.9451,1.9462,1.9434,1.9429,1.9439,1.9394,1.9386,1.9382,1.9376,1.935,1.9344,1.9317,1.9327,1.9326,1.9347,1.9297,1.9353,1.9356,1.9359,1.9416,1.9425,1.9432,0,0,0,0,0,1.9454,1.9481,1.9463,1.9461,1.9442,1.9441,1.9438,1.9407,1.9384,1.9395,1.9374,1.9345,1.9346,1.9329,1.9327,1.9348,1.9351,1.9355,1.9359,1.9413,1.9423,1.9432,0,0,0,0,0,0,1.9512,1.9476,1.9456,1.9474,1.9461,1.9431,1.9443,1.9418,1.9411,1.9406,1.9368,1.9362,1.9378,1.9364,1.9345,1.9378,1.9344,1.9348,1.9386,1.9395,1.9403,1.9405,1.9297,0,0,0,0,0,1.9527,1.9529,1.9497,1.9516,1.9511,1.9479,1.9477,1.9454,1.9439,1.9433,1.9412,1.9399,1.9396,1.9395,1.9391,1.9415,1.9408,1.9429,1.9436,1.9443,1.9446,1.9459,1.9468,1.9373,1.9373,1.9373,0,0,1.9558,1.9538,1.9541,1.9527,1.9514,1.9517,1.9474,1.9479,1.948,1.9433,1.9442,1.9427,1.9409,1.9427,1.9434,1.9416,1.9471,1.9448,1.9453,1.9453,1.9464,1.9473,1.948,1.9376,1.9375,1.9375,0,0,1.9614,1.96,1.9614,1.9603,1.9584,1.9563,1.9567,1.9541,1.9529,1.9538,1.9503,1.9505,1.9501,1.949,1.9484,1.9539,1.9512,1.9539,1.9579,1.9592,1.9599,1.9606,1.9626,1.9633,1.9543,1.9543,1.9543,0,1.9654,1.9657,1.9625,1.9632,1.9627,1.9586,1.96,1.959,1.9572,1.9569,1.955,1.9546,1.9531,1.9545,1.9559,1.9556,1.9559,1.9541,1.9601,1.9607,1.9613,1.9631,1.9639,1.9547,1.9546,1.9546,1.9545,0,1.9708,1.971,1.9724,1.9708,1.9704,1.9715,1.9685,1.9686,1.9664,1.9646,1.9656,1.9637,1.9628,1.9631,1.9609,1.9643,1.9633,1.9608,1.9573,1.9626,1.9642,1.9649,1.9551,1.955,1.9549,1.9548,0,0,1.9798,1.9765,1.977,1.9762,1.974,1.9742,1.9752,1.9744,1.9745,1.9735,1.9742,1.9741,1.9718,1.9712,1.9689,1.97,1.9746,1.9674,1.9673,1.9688,1.9783,1.9801,1.9809,1.9729,1.973,1.9731,1.9784,0,1.985,1.9864,1.9836,1.9857,1.9859,1.9821,1.983,1.9817,1.9801,1.9801,1.9782,1.9782,1.9753,1.9748,1.9758,1.9738,1.9764,1.9734,1.9735,1.9735,1.9739,1.9818,1.9837,1.9888,1.979,1.9791,1.9792,0,1.9911,1.9904,1.9926,1.9903,1.9903,1.9911,1.9903,1.9903,1.9889,1.9876,1.987,1.9844,1.9853,1.9821,1.9832,1.9813,1.9812,1.9802,1.9804,1.9802,1.9766,1.9818,1.9903,1.9911,1.9802,1.9801,1.9801,0,1.9974,1.9971,1.9983,1.9978,1.9952,1.9959,1.9948,1.9932,1.993,1.9923,1.9922,1.9916,1.9912,1.9909,1.9882,1.9861,1.9897,1.9863,1.9887,1.9888,1.9895,1.9894,1.9981,1.9896,1.9896,1.9896,1.9895,0,2.0035,2.0049,2.0011,2.0019,2.0034,2.0003,2.0019,2.0005,1.9992,1.9997,1.9964,1.9969,1.9934,1.9935,1.9915,1.9928,1.9927,1.9917,1.9911,1.9919,1.992,1.9917,1.9912,1.9897,1.9897,1.9897,1.9896,0,2.0107,2.0082,2.0093,2.0069,2.0063,2.0076,2.0055,2.0061,2.0043,2.005,2.0049,2.0021,2.0022,1.9995,1.999,1.9977,1.9998,1.9986,2.0003,1.9999,2.0024,2.0022,2.0111,2.0121,2.003,2.0031,2.0032,0,2.0146,2.0157,2.0134,2.0135,2.0126,2.0128,2.0126,2.0096,2.0095,2.0081,2.009,2.0087,2.0084,2.0086,2.0066,2.0062,2.0049,2.0081,2.0048,2.0057,2.0049,2.0049,2.005,2.0087,2.0088,2.0089,2.009,0,2.0219,2.0207,2.0205,2.02,2.0198,2.0192,2.0184,2.0187,2.0155,2.0156,2.0156,2.0154,2.0149,2.0147,2.014,2.013,2.0105,2.0101,2.0106,2.0114,2.0123,2.0118,2.0021,2.0098,2.0097,2.0097,2.0096,2.0096,2.0276,2.0284,2.0269,2.0269,2.026,2.0254,2.0259,2.0242,2.0242,2.0236,2.0219,2.0222,2.0209,2.0197,2.019,2.0192,2.0176,2.0184,2.0186,2.0188,2.0193,2.0124,2.0191,2.019,2.019,2.019,2.019,0,2.0346,2.0336,2.0336,2.0326,2.0326,2.0304,2.0294,2.0296,2.0299,2.0289,2.0287,2.0288,2.0287,2.0267,2.0264,2.027,2.0259,2.027,2.0269,2.0267,2.0207,2.0202,2.028,2.028,2.0279,2.0279,2.0279,2.0279,2.0383,2.0395,2.0382,2.039,2.0379,2.0382,2.0379,2.0374,2.0366,2.0368,2.0367,2.0355,2.0341,2.0337,2.0335,2.033,2.033,2.0345,2.0336,2.028,2.0271,2.0263,2.0258,2.0346,2.0346,2.0395,2.0396,2.0396]},{"header":{"parameterUnit":"m.s-1","parameterCategory":1,"la1":30.2991,"la2":30.254,"lo1":-89.0895,"lo2":-89.0444,"dy":0.0017,"dx":0.0017,"nx":28,"ny":28,"refTime":"2023-10-16T09:00:00:Z","depth":0,"parameterNumber":3,"parameterNumberName":"V-component_of_WINDS"},"data":[0,0,0,0,0,0,0,0,0,0,0,0,0,0,0,0,0,0,0,0,0,0,0,0,0,0,0,0,0,0,0,0,0,0,0,0,0,0,0,0,0,0,0,0,0,0,0,0,0,0,0,0,0,0,0,0,0,0,-5.5834,-5.5836,0,-5.5985,-5.5987,-5.5988,-5.5932,-5.5929,-5.5925,-5.5922,-5.6071,-5.6078,-5.6085,0,0,0,0,0,0,0,0,0,0,0,0,0,-5.5491,-5.5498,-5.5834,-5.5836,-5.5838,-5.5985,-5.5987,-5.5989,-5.5933,-5.5929,-5.5925,-5.5921,-5.6068,-5.6077,-5.6085,0,0,0,0,0,0,0,0,0,0,0,0,0,-5.5641,-5.55,-5.5833,-5.5828,-5.5829,-5.5984,-5.5987,-5.5989,-5.5934,-5.5929,-5.5923,-5.5919,-5.6066,-5.6076,-5.6086,-5.6255,0,0,-5.6119,-5.6124,0,0,0,0,0,0,0,0,-5.5632,-5.5653,-5.5827,-5.5828,-5.583,-5.5935,-5.592,-5.6078,-5.5935,-5.5894,-5.5922,-5.5916,-5.6029,-5.6042,-5.6082,-5.6262,-5.6268,-5.612,-5.6127,-5.6131,-5.6134,0,0,0,0,0,0,0,-5.5622,-5.5646,-5.5893,-5.5829,-5.5831,-5.5815,-5.5831,-5.595,-5.5988,-5.5897,-5.5893,-5.5912,-5.6029,-5.6072,-5.6085,-5.627,-5.612,-5.6129,-5.6136,-5.614,-5.6595,-5.6601,0,0,0,0,0,0,-5.5612,-5.5638,-5.5889,-5.5898,-5.5717,-5.5826,-5.5843,-5.5906,-5.5987,-5.5994,-5.5916,-5.5909,-5.6056,-5.6072,-5.609,-5.6292,-5.6131,-5.6141,-5.6147,-5.659,-5.6597,-5.6603,0,0,0,0,0,0,-5.5605,-5.5635,-5.5882,-5.5767,-5.5798,-5.5837,-5.5908,-5.5912,-5.5954,-5.6002,-5.6007,-5.5954,-5.6053,-5.6075,-5.6215,-5.6296,-5.6146,-5.6156,-5.6583,-5.6592,-5.66,-5.6698,0,0,0,0,0,0,-5.5595,-5.5633,-5.5698,-5.5769,-5.5804,-5.6007,-5.5913,-5.5918,-5.5974,-5.5966,-5.6038,-5.6045,-5.605,-5.6199,-5.6225,-5.6309,-5.6164,-5.6576,-5.6587,-5.6597,-5.6688,-5.6709,-5.6727,0,0,0,0,0,-5.5583,-5.5719,-5.5702,-5.5733,-5.5888,-5.6012,-5.6031,-5.6037,-5.5981,-5.6046,-5.6076,-5.6043,-5.6284,-5.6214,-5.6243,-5.6331,-5.6571,-5.6584,-5.6596,-5.6679,-5.6705,-5.6727,0,0,0,0,0,0,-5.5654,-5.5728,-5.571,-5.5873,-5.5937,-5.6002,-5.6085,-5.6064,-5.6143,-5.6132,-5.6133,-5.615,-5.6294,-5.6326,-5.6247,-5.6497,-5.6418,-5.6438,-5.6471,-5.6496,-5.6516,-5.6505,-5.6173,0,0,0,0,0,-5.569,-5.5786,-5.5844,-5.5983,-5.6016,-5.6045,-5.6099,-5.6098,-5.6163,-5.6189,-5.6229,-5.6292,-5.6382,-5.6441,-5.6526,-5.6692,-5.6706,-5.6767,-5.6786,-5.6802,-5.6819,-5.6908,-5.6936,-5.6645,-5.6645,-5.6644,0,0,-5.5762,-5.5814,-5.5875,-5.5998,-5.6048,-5.6146,-5.6068,-5.6175,-5.6248,-5.6205,-5.634,-5.6372,-5.6441,-5.6595,-5.6665,-5.6626,-5.6902,-5.6819,-5.6831,-5.6839,-5.6924,-5.6952,-5.6976,-5.6653,-5.6652,-5.665,0,0,-5.5945,-5.5995,-5.6116,-5.6167,-5.6243,-5.6262,-5.6291,-5.636,-5.638,-5.6516,-5.6486,-5.657,-5.6725,-5.6776,-5.6822,-5.7025,-5.6997,-5.7053,-5.7155,-5.7243,-5.7265,-5.7286,-5.7357,-5.7383,-5.7069,-5.7069,-5.7069,0,-5.6025,-5.6175,-5.618,-5.629,-5.6345,-5.6313,-5.6434,-5.6482,-5.6582,-5.6619,-5.6575,-5.6769,-5.6814,-5.6979,-5.7028,-5.7067,-5.7099,-5.7044,-5.7262,-5.7283,-5.7302,-5.737,-5.7397,-5.7075,-5.7075,-5.7074,-5.7073,0,-5.6269,-5.6373,-5.6461,-5.656,-5.6624,-5.6739,-5.676,-5.6824,-5.6817,-5.684,-5.6978,-5.7031,-5.7126,-5.7165,-5.7159,-5.733,-5.7303,-5.7261,-5.7181,-5.7336,-5.74,-5.7426,-5.7084,-5.7082,-5.708,-5.7079,0,0,-5.6501,-5.6602,-5.6634,-5.6679,-5.676,-5.684,-5.6952,-5.7048,-5.7102,-5.7172,-5.7265,-5.7397,-5.7359,-5.7412,-5.741,-5.7487,-5.7644,-5.7435,-5.7437,-5.7472,-5.7834,-5.7865,-5.7895,-5.7625,-5.763,-5.7634,-5.7828,0,-5.669,-5.6891,-5.6899,-5.7081,-5.7176,-5.7147,-5.7245,-5.7304,-5.7329,-5.7411,-5.7437,-5.7531,-5.7473,-5.7505,-5.7579,-5.7609,-5.7716,-5.7595,-5.7711,-5.7715,-5.7694,-5.7929,-5.7962,-5.8142,-5.7853,-5.7857,-5.786,0,-5.6937,-5.7017,-5.7209,-5.7277,-5.7317,-5.7406,-5.7494,-5.7574,-5.764,-5.7652,-5.7712,-5.7699,-5.7813,-5.773,-5.7885,-5.7803,-5.7851,-5.7872,-5.7879,-5.789,-5.7797,-5.7945,-5.82,-5.8227,-5.79,-5.7897,-5.7894,0,-5.7086,-5.7241,-5.7376,-5.7415,-5.7498,-5.7561,-5.7598,-5.766,-5.7717,-5.7792,-5.7829,-5.7916,-5.7964,-5.8031,-5.8042,-5.7981,-5.8198,-5.8116,-5.821,-5.821,-5.8256,-5.8253,-5.8522,-5.8288,-5.8288,-5.8287,-5.8287,0,-5.7296,-5.7415,-5.7444,-5.7528,-5.7659,-5.7666,-5.7796,-5.7827,-5.7883,-5.797,-5.7949,-5.8031,-5.8041,-5.8125,-5.8134,-5.8261,-5.8283,-5.8294,-5.8295,-5.8296,-5.8295,-5.8327,-5.8315,-5.8294,-5.8293,-5.8291,-5.829,0,-5.7485,-5.751,-5.7655,-5.7722,-5.7742,-5.7836,-5.7892,-5.7971,-5.7993,-5.8104,-5.813,-5.8164,-5.8262,-5.828,-5.8395,-5.8401,-5.8552,-5.8541,-5.8531,-5.8529,-5.8622,-5.8612,-5.892,-5.896,-5.8701,-5.8703,-5.8705,0,-5.7617,-5.7708,-5.7786,-5.7844,-5.7885,-5.7978,-5.8037,-5.8047,-5.8108,-5.8191,-5.8259,-5.8355,-5.8433,-5.859,-5.8624,-5.8711,-5.8701,-5.8803,-5.8714,-5.8712,-5.8702,-5.8696,-5.8705,-5.882,-5.8822,-5.8825,-5.8827,0,-5.7849,-5.7857,-5.7943,-5.8034,-5.8104,-5.8176,-5.8243,-5.8291,-5.831,-5.8379,-5.848,-5.8541,-5.8659,-5.8754,-5.8842,-5.8877,-5.8855,-5.8855,-5.8881,-5.8882,-5.8873,-5.8878,-5.8577,-5.8847,-5.8845,-5.8844,-5.8842,-5.8842,-5.8013,-5.8092,-5.816,-5.8256,-5.8308,-5.8372,-5.8449,-5.8482,-5.8567,-5.8666,-5.8666,-5.8776,-5.8839,-5.8955,-5.8996,-5.9081,-5.9049,-5.9087,-5.9096,-5.9105,-5.9114,-5.886,-5.9097,-5.9097,-5.9096,-5.9096,-5.9095,0,-5.8243,-5.8286,-5.8374,-5.847,-5.8546,-5.8521,-5.8594,-5.8658,-5.8756,-5.8818,-5.8895,-5.9011,-5.9103,-5.9145,-5.9235,-5.9295,-5.9287,-5.9319,-5.9314,-5.9322,-5.9138,-5.9106,-5.9324,-5.9324,-5.9324,-5.9323,-5.9323,-5.9323,-5.8372,-5.8505,-5.8521,-5.8679,-5.872,-5.8829,-5.8873,-5.8931,-5.8981,-5.9112,-5.9189,-5.9216,-5.927,-5.9364,-5.9447,-5.9457,-5.949,-5.9527,-5.9532,-5.9359,-5.9335,-5.9313,-5.9283,-5.9534,-5.9534,-5.9708,-5.971,-5.9711]}]]